SCP
0 0 0 0 0 0 0 0 0 0 0 0 0 0 0 0 0 0 0 0 0 0 0 0 0 0 0 0 0 0 -0 0 0 0 0 0 0 0 0 0 0 0 0 0
0 0 0 0 0 0 0 0 0 0 0 0 0 0 0 0 0 0 0 0 0 0 0 0 0 0 0 0 0 0 0 0 0 0 0 0 0 0 0 0 0 0 0 0
0 0 0 0 0 0 0 0 0 0 0 0 0 0 0 0 0 0 0 0 0 0 0 0 0 0 0 0 0 0 0 0 0 0 0 0 0 0 0 0 0 0 0 0
0 0 0 0 0 0 0 0 0 0 0 0 -0 0 0 0 0 0 0 0 0 0 0 0 0 0 0 0 0 0 0 0 0 0 0 0 0 0 0 0 0 0 0 0
0 0 0 0 0 0 0 0 0 -0 -0 -0 -0 0 0 0 0 0 0 0 0 0 0 0 0 0 0 0 0 0 0 0 0 0 0 0 0 0 0 0 0 0 0 0
0 0 0 0 -0 -0 0 0 0 0 0 0 -0 0 -0 -0 -0 -0 0 0 0 0 0 0 0 0 0 0 0 0 0 0 0 0 0 0 0 0 0 0 0 0 0 0
0 0 0 -0 -0 -0 0 -0 0 0 -0 -0 0 -0 0 -0 -0 -0 0 0 0 0 0 0 0 0 0 0 0 0 0 0 0 0 0 0 0 0 0 0 0 0 0 0
0 0 0 -0 -0 0 0 0 0 0 0 0 0 -0 0 -0 -0 -0 0 0 0 0 0 0 0 0 0 0 0 0 0 0 0 0 0 0 0 0 0 0 0 0 0 0
0 0 0 0 0 0 0 0 0 0 0 0 0 -0 -0 0 -0 -0 0 0 0 0 0 0 0 0 0 0 0 0 0 0 0 0 0 0 0 0 0 0 0 0 0 0
0 0 0 0 0 0 0 0 0 0 -0 0 0 0 0 0 0 -0 0 0 0 -0 0 0 0 0 0 0 0 0 0 0 0 0 0 0 0 0 0 0 0 0 0 0
0 0 0 0 0 0 0 0 0 0 0 -0 -0 -0 0 0 0 0 -0 -0 0 0 0 0 0 0 0 0 0 0 0 0 0 0 0 0 0 0 0 0 0 0 0 0
0 0 0 0 0 0 0 0 0 0 0 0 -0 0 -0 0 0 0 0 0 0 0 0 0 0 0 0 0 0 0 0 0 0 0 0 0 0 0 0 0 0 0 0 0
0 -0 -0 -0 0 0 0 0 -0 -0 -0 0 -0 0 0 -0 0 0 0 0 0 0 0 0 0 0 0 0 0 0 0 0 0 0 0 0 0 0 0 0 0 0 0 0
0 -0 -0 -0 0 0 0 0 -0 0 -0 0 -0 0 0 0 0 0 -0 0 0 0 0 0 0 0 0 0 0 0 0 0 0 0 0 0 0 0 0 0 0 0 0 0
0 -0 -0 -0 0 0 0 0 -0 0 0 0 0 0 -0 -0 0 0 -0 0 0 0 0 0 0 0 0 0 0 0 0 0 0 0 0 0 0 0 0 0 0 0 0 0
-0 -0 -0 0 0 0 0 0 0 0 0 0 0 0 0 0 0 0 0 0 0 0 0 0 0 0 0 0 0 0 0 0 0 0 0 0 -0 0 0 0 0 0 0 0
-0 -0 -0 0 -0 -0 0 0 0 0 0 0 0 0 0 0 0 0 0 0 0 0 0 0 0 0 0 0 0 0 0 0 0 0 0 0 -0 0 -0 0 0 0 0 0
-0 -0 -0 -0 0 0 0 0 0 0 0 0 0 0 0 0 0 0 0 0 0 0 0 0 0 0 0 0 0 0 0 0 0 0 0 0 -0 -0 -0 -0 0 0 0 0
-0 -0 -0 -0 0 0 0 -0 0 0 0 0 0 0 0 0 0 0 0 0 0 0 0 0 0 0 0 0 0 0 0 0 0 0 -0 -0 -0 -0 -0 -0 0 0 -0 -0
-0 -0 0 0 0 0 0 0 0 0 0 0 0 0 0 0 0 0 0 0 0 0 0 0 0 0 0 0 0 0 0 0 0 -0 -0 -0 -0 -0 -0 0 0 -0 0 0
-0 0 0 0 0 0 0 0 0 0 0 0 0 0 0 0 0 0 0 0 0 0 0 0 0 0 0 0 -0 0 0 0 0 0 0 0 -0 -0 0 0 -0 -0 0 0
0 0 0 0 0 0 0 0 0 0 0 0 0 0 0 0 0 0 -0 0 0 0 0 0 0 0 0 0 0 0 0 0 0 -0 -0 -0 -0 -0 0 0 0 0 0 -0
0 0 0 0 0 0 0 0 0 0 0 0 0 0 0 0 0 0 0 0 0 0 0 0 0 0 0 0 -0 -0 0 0 -0 -0 -0 -0 -0 -0 -0 0 0 0 -0 0
0 0 0 0 0 0 0 0 0 0 0 -0 0 0 0 0 0 0 -0 0 0 0 0 0 0 0 -0 -0 -0 -0 -0 -0 -0 -0 -0 -0 -0 -0 0 0 0 0 -0 0
0 0 0 0 0 0 0 0 0 0 -0 -0 0 0 0 0 0 0 0 0 0 0 0 0 0 0 -0 -0 -0 -0 0 -0 -0 -0 -0 -0 -0 0 0 0 0 0 -0 -0
0 0 0 0 0 0 0 0 0 0 0 0 0 0 0 -0 -0 0 0 0 0 0 0 -0 0 0 -0 -0 -0 -0 -0 -0 -0 0 0 -0 -0 0 0 0 0 0 0 -0
0 0 0 0 0 0 0 0 0 0 -0 0 0 0 -0 -0 -0 -0 0 0 -0 -0 0 0 0 -0 -0 -0 -0 -0 -0 -0 -0 0 0 -0 0 0 0 0 0 0 0 -0
Wind_Speed_500mb
47 45 45 44 43 49 29 20 10 12 6 17 17 20 28 33 31 29 42 38 32 23 21 26 36 28 18 10 9 37 39 21 21 36 11 7 20 23 26 16 24 16 20 16
50 46 41 41 35 38 37 15 30 10 20 11 17 26 28 39 35 34 27 31 29 23 25 19 4 16 5 10 10 7 21 20 21 12 18 16 26 25 22 20 19 23 19 6
50 49 46 42 33 35 31 12 8 9 22 29 22 17 18 24 37 39 50 25 6 16 28 20 26 17 10 17 17 21 10 18 33 21 1 13 34 27 29 28 20 23 26 16
52 49 48 34 32 35 21 10 11 13 13 17 16 14 22 25 7 19 13 13 28 12 22 23 22 33 30 35 29 19 13 18 21 5 3 2 9 16 24 28 28 27 22 11
52 48 43 32 33 32 18 13 10 17 39 39 28 17 19 20 14 10 18 22 21 25 11 3 21 22 21 17 22 22 14 14 18 22 23 20 22 21 25 26 23 16 21 29
46 51 36 34 28 25 14 21 23 16 21 20 21 14 9 2 14 11 12 36 20 22 10 10 18 12 10 5 12 14 15 15 14 21 16 14 23 30 32 32 29 28 29 23
45 44 41 43 35 27 32 26 31 9 13 24 17 28 26 11 6 5 12 7 17 12 23 17 11 12 8 7 10 1 14 21 12 9 6 18 3 3 9 20 26 29 23 11
45 45 41 44 41 29 23 14 14 5 6 23 24 25 23 2 9 8 8 20 13 22 14 6 11 10 11 10 5 8 4 14 8 9 15 13 18 9 7 16 14 10 15 12
42 44 41 41 42 37 34 18 16 17 12 6 11 23 26 7 5 5 7 15 22 1 6 5 9 10 11 13 8 7 11 7 11 9 7 9 14 7 2 3 11 14 16 19
43 45 42 39 41 35 32 33 15 16 9 21 13 8 13 13 6 6 3 6 1 12 7 7 6 6 2 15 16 22 15 14 19 13 10 9 6 6 6 16 8 19 18 17
48 46 43 38 35 32 30 36 29 18 9 28 29 15 14 16 11 5 10 7 12 8 6 4 4 4 5 5 20 18 14 16 14 10 15 12 10 11 10 18 26 24 21 18
46 45 43 40 37 27 25 35 16 19 18 18 26 25 21 24 17 14 2 9 1 7 2 2 1 4 6 4 9 7 10 8 10 13 5 12 8 18 18 18 26 21 20 18
50 45 45 41 40 24 23 33 26 25 14 21 12 8 10 8 16 21 10 4 2 2 5 5 3 4 3 5 5 8 2 6 5 11 14 14 23 28 29 27 27 23 21 18
51 49 45 40 39 28 25 26 25 24 7 7 2 8 6 8 8 11 24 6 3 4 3 3 0 4 4 3 3 4 5 11 6 5 14 20 22 29 32 30 28 22 22 19
54 57 43 34 34 28 24 27 19 17 5 4 11 11 7 5 4 6 16 9 5 5 5 4 2 3 4 3 5 11 15 10 7 5 15 10 31 27 24 32 28 23 22 22
51 34 23 21 21 21 17 7 8 18 16 6 4 6 4 8 14 16 16 13 6 3 2 3 4 4 5 1 6 5 14 19 27 7 12 7 29 34 29 32 26 22 21 22
40 21 25 26 20 16 13 8 10 5 22 5 4 3 3 15 15 9 11 10 6 3 2 3 4 5 6 4 7 4 10 19 21 12 20 27 35 35 33 32 27 26 24 22
34 22 19 16 16 13 15 14 8 6 8 6 3 2 2 13 5 5 6 5 5 5 3 4 3 3 9 8 13 15 9 10 19 27 12 28 33 38 34 30 27 26 24 22
24 21 23 17 7 6 4 9 12 1 5 3 3 2 3 10 6 7 4 1 3 4 2 2 2 5 10 5 7 20 21 17 27 26 31 39 39 36 32 26 23 24 22 17
20 25 4 4 1 5 15 7 4 3 2 2 3 2 3 3 3 3 6 1 1 3 5 8 7 9 22 10 7 7 28 26 34 37 36 37 35 32 28 24 22 21 18 15
7 6 5 5 11 8 3 3 2 3 4 4 1 1 3 5 2 4 4 2 4 4 6 5 4 5 5 10 27 16 29 32 29 23 29 30 32 32 31 29 26 23 20 17
5 8 5 6 2 2 2 3 4 5 1 9 6 7 5 4 4 4 6 3 4 2 5 4 5 5 3 13 29 19 36 35 27 33 36 34 32 32 34 31 29 25 21 18
7 5 3 2 1 3 5 8 6 4 10 10 13 5 3 6 3 4 3 4 2 5 5 5 4 14 7 29 31 38 39 36 38 41 38 38 39 37 35 34 29 25 21 18
6 7 3 4 3 4 3 3 5 8 7 16 18 9 2 5 5 3 6 5 4 5 6 5 10 15 25 31 35 42 39 41 42 42 40 43 42 39 33 30 26 22 20 18
5 4 4 2 6 5 6 8 1 7 16 17 11 7 2 3 3 4 4 5 8 7 3 5 14 22 34 38 40 46 49 41 37 39 42 41 39 36 32 27 24 21 20 20
4 4 5 8 4 7 8 13 10 11 15 10 5 4 2 4 3 6 8 4 7 1 5 4 22 39 49 41 41 42 43 42 41 39 39 38 34 33 31 27 23 20 19 19
6 3 12 9 9 9 8 7 9 17 12 1 3 5 4 4 5 6 6 6 7 9 12 16 42 61 48 36 42 42 41 41 42 41 39 36 34 32 29 27 22 20 20 19
Wind_Direction_500mb
339 339 336 333 333 334 338 325 286 317 236 224 212 237 237 262 235 237 251 246 267 266 248 227 190 202 190 16 276 209 210 213 197 199 131 305 252 226 217 215 231 250 276 273
338 334 333 333 334 336 325 291 283 266 213 262 277 288 289 246 246 254 240 249 240 227 223 215 217 200 144 55 338 242 164 219 199 222 199 201 225 220 246 245 266 258 243 229
337 335 333 330 326 327 308 296 294 193 205 263 295 300 289 287 268 245 250 257 285 218 215 216 177 157 112 167 236 260 230 220 220 223 133 220 209 225 214 225 234 243 242 209
341 335 336 330 324 327 301 255 260 309 288 291 281 275 286 284 321 292 280 247 215 165 255 202 184 170 159 191 180 185 204 240 218 205 208 192 252 208 209 228 235 248 264 231
338 334 337 338 329 322 272 283 313 321 296 294 303 298 308 339 342 223 298 281 210 178 202 232 177 165 174 174 177 174 192 209 196 179 205 230 246 240 244 242 246 269 265 266
338 337 331 326 328 321 277 274 285 266 275 295 295 315 319 5 331 219 192 284 161 183 154 82 314 34 11 153 184 176 186 180 201 236 164 250 249 241 244 246 228 236 246 259
334 334 330 320 334 322 279 272 287 264 291 282 310 312 307 315 3 266 335 311 110 76 115 130 154 162 189 132 101 155 195 205 203 233 176 240 52 25 294 276 254 236 235 282
323 325 333 317 320 340 328 279 310 247 262 292 291 328 311 153 97 342 352 21 66 107 126 151 164 171 184 186 185 179 319 206 183 197 221 284 270 181 215 211 208 204 224 144
314 310 323 325 317 319 340 302 326 257 300 41 350 310 304 347 67 339 56 67 123 77 210 161 218 176 141 152 139 212 196 251 214 198 196 230 67 84 174 210 191 134 144 144
311 303 312 319 320 311 313 305 303 273 267 274 0 344 328 344 20 92 31 5 215 244 217 190 192 146 355 163 149 163 170 189 205 192 213 255 67 117 180 225 108 129 135 131
322 305 307 318 320 322 303 308 306 259 260 277 284 278 286 328 303 339 131 205 209 221 221 227 151 164 125 199 126 161 159 174 195 193 210 241 124 161 242 102 112 117 116 110
324 312 303 308 313 318 301 294 310 307 261 264 296 281 283 253 291 321 279 340 15 27 278 253 297 144 186 145 155 161 182 175 171 189 199 91 88 86 97 121 121 114 112 102
317 323 308 299 306 309 295 288 302 301 277 284 276 298 219 257 257 244 278 220 342 152 322 332 60 120 228 169 155 144 155 204 203 167 155 137 127 114 108 113 111 108 110 107
316 315 308 295 293 299 293 289 287 283 281 279 236 346 170 296 275 234 223 274 207 137 263 298 323 152 323 136 43 240 139 170 138 8 127 131 142 135 121 115 115 115 108 101
315 311 301 288 289 298 275 273 286 266 184 300 303 316 23 27 147 152 180 168 143 201 215 229 155 80 243 124 306 241 192 148 162 199 200 195 179 161 143 139 137 130 119 107
315 326 315 292 294 295 280 295 241 239 232 276 300 320 26 117 117 114 117 126 141 150 267 60 113 54 262 234 258 260 224 199 157 213 143 127 135 147 147 140 137 132 127 119
318 310 315 295 290 275 248 236 339 212 197 243 267 168 135 147 132 114 103 100 74 57 76 353 343 163 232 235 227 139 194 192 193 173 140 128 140 141 141 138 134 127 125 120
331 318 305 301 291 256 263 269 229 109 180 234 249 125 176 156 97 98 70 67 50 7 354 176 209 162 229 253 219 179 123 149 168 168 181 153 142 140 139 137 135 131 130 128
314 316 310 291 252 227 247 184 172 126 176 277 262 274 124 132 86 102 79 101 157 130 179 225 240 224 227 244 203 197 189 157 149 140 129 137 141 139 140 140 144 142 138 131
316 315 311 255 189 179 135 124 122 118 175 190 284 326 91 112 135 112 136 229 279 204 199 175 231 244 254 232 186 157 175 156 148 139 143 142 142 142 141 141 142 141 139 136
356 338 333 59 144 128 86 99 186 135 193 195 187 291 123 85 89 99 96 212 178 255 144 237 229 246 168 200 191 169 168 156 156 148 146 148 146 143 139 136 133 127 121 117
347 326 334 121 91 88 214 115 125 232 74 146 168 120 85 111 120 118 196 243 214 282 116 265 244 195 80 171 168 163 158 149 145 142 138 137 136 136 135 132 127 122 115 104
332 353 11 322 42 195 243 169 147 210 170 162 157 114 134 144 172 81 246 234 287 173 226 237 235 75 143 148 139 135 140 138 135 134 131 131 130 130 131 128 123 118 109 99
350 343 331 318 169 244 325 55 46 79 119 146 149 123 192 84 155 121 227 182 264 249 231 200 96 129 136 141 139 139 139 139 135 131 134 132 131 129 128 124 120 115 104 96
335 331 318 263 322 298 279 273 212 96 135 131 124 103 70 123 172 232 276 220 238 220 286 59 97 135 145 140 137 131 123 131 135 138 137 135 134 133 128 124 118 110 103 104
301 295 296 323 285 234 212 137 120 141 146 123 106 102 214 184 212 210 214 241 240 52 353 15 146 140 130 132 137 138 139 142 142 140 139 138 136 137 132 124 114 106 105 107
305 329 304 290 283 297 328 72 123 155 149 144 173 220 193 114 215 219 217 253 33 354 326 169 153 142 135 137 133 135 137 138 135 133 132 135 139 136 130 123 115 105 105 109
Wind_Speed_850mb
47 45 45 44 43 49 29 20 10 12 6 17 17 20 28 33 31 29 42 38 32 23 21 26 36 28 18 10 9 37 39 21 21 36 11 7 20 23 26 16 24 16 20 16
50 46 41 41 35 38 37 15 30 10 20 11 17 26 28 39 35 34 27 31 29 23 25 19 4 16 5 10 10 7 21 20 21 12 18 16 26 25 22 20 19 23 19 6
50 49 46 42 33 35 31 12 8 9 22 29 22 17 18 24 37 39 50 25 6 16 28 20 26 17 10 17 17 21 10 18 33 21 1 13 34 27 29 28 20 23 26 16
52 49 48 34 32 35 21 10 11 13 13 17 16 14 22 25 7 19 13 13 28 12 22 23 22 33 30 35 29 19 13 18 21 5 3 2 9 16 24 28 28 27 22 11
52 48 43 32 33 32 18 13 10 17 39 39 28 17 19 20 14 10 18 22 21 25 11 3 21 22 21 17 22 22 14 14 18 22 23 20 22 21 25 26 23 16 21 29
46 51 36 34 28 25 14 21 23 16 21 20 21 14 9 2 14 11 12 36 20 22 10 10 18 12 10 5 12 14 15 15 14 21 16 14 23 30 32 32 29 28 29 23
45 44 41 43 35 27 32 26 31 9 13 24 17 28 26 11 6 5 12 7 17 12 23 17 11 12 8 7 10 1 14 21 12 9 6 18 3 3 9 20 26 29 23 11
45 45 41 44 41 29 23 14 14 5 6 23 24 25 23 2 9 8 8 20 13 22 14 6 11 10 11 10 5 8 4 14 8 9 15 13 18 9 7 16 14 10 15 12
42 44 41 41 42 37 34 18 16 17 12 6 11 23 26 7 5 5 7 15 22 1 6 5 9 10 11 13 8 7 11 7 11 9 7 9 14 7 2 3 11 14 16 19
43 45 42 39 41 35 32 33 15 16 9 21 13 8 13 13 6 6 3 6 1 12 7 7 6 6 2 15 16 22 15 14 19 13 10 9 6 6 6 16 8 19 18 17
48 46 43 38 35 32 30 36 29 18 9 28 29 15 14 16 11 5 10 7 12 8 6 4 4 4 5 5 20 18 14 16 14 10 15 12 10 11 10 18 26 24 21 18
46 45 43 40 37 27 25 35 16 19 18 18 26 25 21 24 17 14 2 9 1 7 2 2 1 4 6 4 9 7 10 8 10 13 5 12 8 18 18 18 26 21 20 18
50 45 45 41 40 24 23 33 26 25 14 21 12 8 10 8 16 21 10 4 2 2 5 5 3 4 3 5 5 8 2 6 5 11 14 14 23 28 29 27 27 23 21 18
51 49 45 40 39 28 25 26 25 24 7 7 2 8 6 8 8 11 24 6 3 4 3 3 0 4 4 3 3 4 5 11 6 5 14 20 22 29 32 30 28 22 22 19
54 57 43 34 34 28 24 27 19 17 5 4 11 11 7 5 4 6 16 9 5 5 5 4 2 3 4 3 5 11 15 10 7 5 15 10 31 27 24 32 28 23 22 22
51 34 23 21 21 21 17 7 8 18 16 6 4 6 4 8 14 16 16 13 6 3 2 3 4 4 5 1 6 5 14 19 27 7 12 7 29 34 29 32 26 22 21 22
40 21 25 26 20 16 13 8 10 5 22 5 4 3 3 15 15 9 11 10 6 3 2 3 4 5 6 4 7 4 10 19 21 12 20 27 35 35 33 32 27 26 24 22
34 22 19 16 16 13 15 14 8 6 8 6 3 2 2 13 5 5 6 5 5 5 3 4 3 3 9 8 13 15 9 10 19 27 12 28 33 38 34 30 27 26 24 22
24 21 23 17 7 6 4 9 12 1 5 3 3 2 3 10 6 7 4 1 3 4 2 2 2 5 10 5 7 20 21 17 27 26 31 39 39 36 32 26 23 24 22 17
20 25 4 4 1 5 15 7 4 3 2 2 3 2 3 3 3 3 6 1 1 3 5 8 7 9 22 10 7 7 28 26 34 37 36 37 35 32 28 24 22 21 18 15
7 6 5 5 11 8 3 3 2 3 4 4 1 1 3 5 2 4 4 2 4 4 6 5 4 5 5 10 27 16 29 32 29 23 29 30 32 32 31 29 26 23 20 17
5 8 5 6 2 2 2 3 4 5 1 9 6 7 5 4 4 4 6 3 4 2 5 4 5 5 3 13 29 19 36 35 27 33 36 34 32 32 34 31 29 25 21 18
7 5 3 2 1 3 5 8 6 4 10 10 13 5 3 6 3 4 3 4 2 5 5 5 4 14 7 29 31 38 39 36 38 41 38 38 39 37 35 34 29 25 21 18
6 7 3 4 3 4 3 3 5 8 7 16 18 9 2 5 5 3 6 5 4 5 6 5 10 15 25 31 35 42 39 41 42 42 40 43 42 39 33 30 26 22 20 18
5 4 4 2 6 5 6 8 1 7 16 17 11 7 2 3 3 4 4 5 8 7 3 5 14 22 34 38 40 46 49 41 37 39 42 41 39 36 32 27 24 21 20 20
4 4 5 8 4 7 8 13 10 11 15 10 5 4 2 4 3 6 8 4 7 1 5 4 22 39 49 41 41 42 43 42 41 39 39 38 34 33 31 27 23 20 19 19
6 3 12 9 9 9 8 7 9 17 12 1 3 5 4 4 5 6 6 6 7 9 12 16 42 61 48 36 42 42 41 41 42 41 39 36 34 32 29 27 22 20 20 19
Wind_Direction_850mb
339 339 336 333 333 334 338 325 286 317 236 224 212 237 237 262 235 237 251 246 267 266 248 227 190 202 190 16 276 209 210 213 197 199 131 305 252 226 217 215 231 250 276 273
338 334 333 333 334 336 325 291 283 266 213 262 277 288 289 246 246 254 240 249 240 227 223 215 217 200 144 55 338 242 164 219 199 222 199 201 225 220 246 245 266 258 243 229
337 335 333 330 326 327 308 296 294 193 205 263 295 300 289 287 268 245 250 257 285 218 215 216 177 157 112 167 236 260 230 220 220 223 133 220 209 225 214 225 234 243 242 209
341 335 336 330 324 327 301 255 260 309 288 291 281 275 286 284 321 292 280 247 215 165 255 202 184 170 159 191 180 185 204 240 218 205 208 192 252 208 209 228 235 248 264 231
338 334 337 338 329 322 272 283 313 321 296 294 303 298 308 339 342 223 298 281 210 178 202 232 177 165 174 174 177 174 192 209 196 179 205 230 246 240 244 242 246 269 265 266
338 337 331 326 328 321 277 274 285 266 275 295 295 315 319 5 331 219 192 284 161 183 154 82 314 34 11 153 184 176 186 180 201 236 164 250 249 241 244 246 228 236 246 259
334 334 330 320 334 322 279 272 287 264 291 282 310 312 307 315 3 266 335 311 110 76 115 130 154 162 189 132 101 155 195 205 203 233 176 240 52 25 294 276 254 236 235 282
323 325 333 317 320 340 328 279 310 247 262 292 291 328 311 153 97 342 352 21 66 107 126 151 164 171 184 186 185 179 319 206 183 197 221 284 270 181 215 211 208 204 224 144
314 310 323 325 317 319 340 302 326 257 300 41 350 310 304 347 67 339 56 67 123 77 210 161 218 176 141 152 139 212 196 251 214 198 196 230 67 84 174 210 191 134 144 144
311 303 312 319 320 311 313 305 303 273 267 274 0 344 328 344 20 92 31 5 215 244 217 190 192 146 355 163 149 163 170 189 205 192 213 255 67 117 180 225 108 129 135 131
322 305 307 318 320 322 303 308 306 259 260 277 284 278 286 328 303 339 131 205 209 221 221 227 151 164 125 199 126 161 159 174 195 193 210 241 124 161 242 102 112 117 116 110
324 312 303 308 313 318 301 294 310 307 261 264 296 281 283 253 291 321 279 340 15 27 278 253 297 144 186 145 155 161 182 175 171 189 199 91 88 86 97 121 121 114 112 102
317 323 308 299 306 309 295 288 302 301 277 284 276 298 219 257 257 244 278 220 342 152 322 332 60 120 228 169 155 144 155 204 203 167 155 137 127 114 108 113 111 108 110 107
316 315 308 295 293 299 293 289 287 283 281 279 236 346 170 296 275 234 223 274 207 137 263 298 323 152 323 136 43 240 139 170 138 8 127 131 142 135 121 115 115 115 108 101
315 311 301 288 289 298 275 273 286 266 184 300 303 316 23 27 147 152 180 168 143 201 215 229 155 80 243 124 306 241 192 148 162 199 200 195 179 161 143 139 137 130 119 107
315 326 315 292 294 295 280 295 241 239 232 276 300 320 26 117 117 114 117 126 141 150 267 60 113 54 262 234 258 260 224 199 157 213 143 127 135 147 147 140 137 132 127 119
318 310 315 295 290 275 248 236 339 212 197 243 267 168 135 147 132 114 103 100 74 57 76 353 343 163 232 235 227 139 194 192 193 173 140 128 140 141 141 138 134 127 125 120
331 318 305 301 291 256 263 269 229 109 180 234 249 125 176 156 97 98 70 67 50 7 354 176 209 162 229 253 219 179 123 149 168 168 181 153 142 140 139 137 135 131 130 128
314 316 310 291 252 227 247 184 172 126 176 277 262 274 124 132 86 102 79 101 157 130 179 225 240 224 227 244 203 197 189 157 149 140 129 137 141 139 140 140 144 142 138 131
316 315 311 255 189 179 135 124 122 118 175 190 284 326 91 112 135 112 136 229 279 204 199 175 231 244 254 232 186 157 175 156 148 139 143 142 142 142 141 141 142 141 139 136
356 338 333 59 144 128 86 99 186 135 193 195 187 291 123 85 89 99 96 212 178 255 144 237 229 246 168 200 191 169 168 156 156 148 146 148 146 143 139 136 133 127 121 117
347 326 334 121 91 88 214 115 125 232 74 146 168 120 85 111 120 118 196 243 214 282 116 265 244 195 80 171 168 163 158 149 145 142 138 137 136 136 135 132 127 122 115 104
332 353 11 322 42 195 243 169 147 210 170 162 157 114 134 144 172 81 246 234 287 173 226 237 235 75 143 148 139 135 140 138 135 134 131 131 130 130 131 128 123 118 109 99
350 343 331 318 169 244 325 55 46 79 119 146 149 123 192 84 155 121 227 182 264 249 231 200 96 129 136 141 139 139 139 139 135 131 134 132 131 129 128 124 120 115 104 96
335 331 318 263 322 298 279 273 212 96 135 131 124 103 70 123 172 232 276 220 238 220 286 59 97 135 145 140 137 131 123 131 135 138 137 135 134 133 128 124 118 110 103 104
301 295 296 323 285 234 212 137 120 141 146 123 106 102 214 184 212 210 214 241 240 52 353 15 146 140 130 132 137 138 139 142 142 140 139 138 136 137 132 124 114 106 105 107
305 329 304 290 283 297 328 72 123 155 149 144 173 220 193 114 215 219 217 253 33 354 326 169 153 142 135 137 133 135 137 138 135 133 132 135 139 136 130 123 115 105 105 109